Location: Canesano
(44.5667°N, 10.1333°E)
Time: 01:51:22
(UTC+00:00)

Daily predictions for brighter satellites

Satellite Brightness Start Highest point End
(mag) Time Altitude Azimuth Time Altitude Azimuth Time Altitude Azimuth
CENTAUR R/B 4.4 02:28:55 23° E 02:28:55 23° E 02:32:24 10° NE
Cosmos 2344 4.0 02:53:31 55° ENE 02:53:31 55° ENE 02:59:41 10° NE
USA 238 DEB 4.3 03:12:40 49° ESE 03:12:48 49° ESE 03:19:15 10° NE
USA 238 4.3 03:12:43 48° ESE 03:12:55 48° ESE 03:19:22 10° NE
BREEZE-M DEB (TANK) 4.4 03:15:56 38° E 03:15:56 38° E 03:21:56 10° ESE
Cosmos 2034 Rocket 4.4 03:24:10 56° SE 03:24:10 56° SE 03:29:21 10° SSE
USA 215 3.9 03:19:06 10° E 03:25:14 45° NNE 03:25:43 44° NNE
Cosmos 2369 Rocket 3.9 03:32:23 10° SSE 03:37:13 31° ESE 03:42:03 10° NE
NOSS 3-3 (A) 4.5 03:44:27 59° NW 03:46:17 88° ENE 03:54:50 10° SE
NOSS 3-3 (C) 4.5 03:44:32 58° NNW 03:46:23 88° NE 03:54:55 10° SE
COSMO-SKYMED 1 4.4 03:43:16 10° SE 03:47:02 29° ENE 03:48:35 23° NNE
Cosmos 1867 3.8 03:50:14 65° SE 03:50:14 65° SE 03:54:50 10° SSE
MOS 1-B Rocket 4.4 03:43:55 10° SSE 03:50:08 58° ENE 03:54:14 19° N
Tsikada Rocket 4.1 03:45:39 10° S 03:51:47 74° E 03:58:04 10° NNE
Cosmos 2208 Rocket 4.1 03:52:17 76° E 03:52:17 76° E 03:57:32 10° SSE
H-2A R/B 4.5 03:50:31 10° NNE 03:53:51 31° E 03:57:12 10° SSE
Gblst 52 Del rocket 4.3 03:54:35 74° NNW 03:54:35 74° NNW 04:01:08 10° ENE
Cosmos 1943 Rocket 2.1 04:06:39 70° NW 04:06:39 70° NW 04:12:02 10° NNE
CZ-2C R/B 3.3 04:02:45 10° SSE 04:08:06 55° ENE 04:13:22 10° N
SL-19 R/B 4.2 04:04:44 10° SSE 04:10:21 83° ENE 04:13:20 29° NNW
Cosmos 1241 Rocket 4.3 04:10:32 58° NW 04:11:50 79° WSW 04:18:01 10° SSE
SL-8 R/B 3.9 04:16:23 57° N 04:16:33 58° N 04:21:16 10° E
CENTAUR R/B 2.5 04:16:08 55° W 04:16:59 60° NW 04:24:03 10° NNE
Cosmos 2297 3.7 04:21:06 56° WNW 04:21:18 56° WNW 04:26:58 10° NNE
Iridium 2 4.1 04:22:27 10° S 04:26:12 63° E 04:29:57 10° N
NOSS 3-2 (A) 3.7 04:27:49 41° NW 04:28:10 42° NW 04:34:22 10° NNE
Cosmos 2278 Rocket 4.3 04:33:50 12° NNW 04:33:50 12° NNW 04:34:33 10° N
SKYMED 2 3.5 04:30:35 10° SSE 04:34:55 89° WSW 04:37:12 28° NNW
NOSS 3-2 (C) 3.3 04:33:35 40° WSW 04:35:30 59° NW 04:41:56 10° NNE
Envisat 2.9 04:31:03 10° NNE 04:36:10 86° WNW 04:41:15 10° SSW
Meteor 2-6 Rocket 4.4 04:31:33 10° N 04:36:58 66° ENE 04:42:19 10° SSE
Cosmos 2098 Rocket 2.9 04:37:23 10° S 04:41:08 89° E 04:45:57 10° N
Meteor 2-3 Rocket 3.9 04:36:28 10° SSW 04:41:53 46° WNW 04:47:23 10° N
Landsat 5 3.6 04:40:02 10° SSE 04:44:33 89° ENE 04:48:26 14° NNW
Cosmos 968 Rocket 3.5 04:42:38 25° SW 04:45:22 51° WNW 04:50:23 10° NNE
Meteor 2-13 Rocket 4.3 04:40:11 10° SSW 04:46:15 66° WNW 04:52:19 10° N
CZ-4B R/B 4.0 04:44:12 10° N 04:48:39 78° WNW 04:53:08 10° SSW
Genesis I 3.6 04:49:24 42° WSW 04:49:40 43° WSW 04:53:31 10° S
Cosmos 921 Rocket 3.2 04:50:35 38° NW 04:51:54 52° WSW 04:56:13 10° S
Okean 3 Rocket 3.6 04:48:15 10° S 04:52:46 86° E 04:57:21 10° N
ATLAS 5 CENTAUR R/B 4.3 04:52:06 10° SSE 04:54:45 18° ESE 04:57:35 10° ENE
H-2A R/B 3.6 04:51:24 10° SE 04:55:17 36° ENE 04:59:16 10° N
DNEPR-1 R/B 4.0 04:53:14 23° NNW 04:56:16 82° NE 05:02:00 10° SE
Cosmos 1833 4.4 04:51:16 13° NNW 04:56:26 74° ENE 05:02:10 10° SSE
Cosmos 1812 2.8 04:56:57 35° NW 04:58:12 50° W 05:01:54 10° S
CBERS 1 LM4 rocket 4.3 04:54:32 10° N 04:59:21 65° WNW 05:04:18 10° SSW
ADEOS 3.7 04:54:26 10° NNE 04:59:42 79° ESE 05:04:55 10° SSW
Cosmos 1354 Rocket 4.3 04:57:44 10° S 05:02:57 70° ESE 05:08:15 10° NNE
USA 238 DEB 4.0 05:00:11 23° W 05:03:51 41° NW 05:10:22 10° NNE
USA 238 4.0 05:00:14 23° W 05:03:57 42° NW 05:10:29 10° NNE
Cosmos 2142 Rocket 4.5 04:58:40 10° NNW 05:04:58 68° W 05:11:17 10° S
Cosmos 1151 Rocket 3.1 05:01:35 15° NNW 05:05:04 52° W 05:09:19 10° S
Cosmos 1766 Rocket 3.5 05:01:43 10° SSW 05:06:00 60° W 05:10:18 10° N
Cosmos 2263 4.1 05:01:26 10° SSW 05:07:06 73° WNW 05:12:52 10° NNE
Cosmos 2344 4.2 05:03:34 23° WNW 05:07:10 34° NNW 05:14:28 10° NNE
CZ-2C R/B 3.4 05:02:51 10° NNE 05:07:41 63° ESE 05:12:42 10° S
USA 215 3.3 05:01:29 10° SE 05:08:01 74° SW 05:13:03 18° NW
Meteor PRIRODA 3.8 05:09:22 10° NNE 05:13:00 72° ESE 05:16:36 10° S
Meteor 1-31 Rocket 3.2 05:10:52 10° N 05:14:30 38° WNW 05:18:08 10° SW
Cosmos 1782 4.4 05:15:55 17° WSW 05:15:55 17° WSW 05:17:35 10° SW
Cosmos 2279 Rocket 4.0 05:09:38 10° NNW 05:15:42 59° W 05:21:44 10° S
Cosmos 2297 Rocket 4.5 05:12:44 10° N 05:16:28 18° NE 05:20:10 10° E
IRAS Rocket 4.2 05:11:07 10° SSE 05:16:39 85° WSW 05:22:10 10° NNW
Cosmos 1328 Rocket 3.6 05:13:27 10° NNW 05:17:45 54° W 05:21:59 10° S
BREEZE-M DEB (TANK) 3.8 05:04:38 10° SW 05:18:01 68° SSE 05:21:39 10° ENE
Cosmos 2369 Rocket 2.5 05:15:47 10° SW 05:21:03 42° WNW 05:26:23 10° NNE
FALCON 9 DEB 4.3 05:21:07 22° NW 05:22:09 26° NNW 05:25:05 10° NE
Cosmos 1862 3.7 05:18:40 10° SW 05:22:21 38° WNW 05:26:04 10° N
COSMO-SKYMED 1 3.5 05:19:26 10° SSW 05:23:09 27° W 05:25:48 16° NW
SMAP 4.1 05:18:54 10° NNE 05:23:26 49° E 05:27:55 10° S
Nadezhda 4 Rocket 4.1 05:19:11 10° S 05:25:20 83° E 05:31:35 10° N
H-2A R/B 4.0 05:25:03 10° NNW 05:27:46 20° WNW 05:30:30 10° WSW
H-2A R/B 3.9 05:30:15 10° NNE 05:34:39 32° E 05:39:03 10° SSE
Meteor 2-15 Rocket 4.4 05:29:23 10° N 05:35:29 79° W 05:41:32 10° S
Cosmos 2228 Rocket 4.3 05:31:34 10° N 05:35:54 46° ENE 05:40:15 10° SSE
CZ-4B R/B 2.5 05:33:47 10° N 05:37:20 63° WNW 05:40:52 10° SSW
CZ-4B R/B 2.3 05:35:48 10° SSE 05:39:02 48° ENE 05:42:14 10° N
Cosmos 1408 Rocket 3.6 05:37:12 10° SSW 05:41:24 53° WNW 05:45:38 10° N
CZ-4C R/B 4.2 05:41:50 10° SW 05:44:09 19° W 05:46:01 12° NW
DMSP B5D2-2 4.3 05:39:20 10° S 05:44:25 52° W 05:49:31 10° NNW
Cosmos 1656 Rocket 4.1 05:39:47 10° WSW 05:44:46 37° NW 05:49:49 10° NNE
Cosmos 1503 Rocket 4.3 05:39:59 10° SW 05:45:01 45° WNW 05:50:08 10° N
USA 32 4.2 05:42:15 10° N 05:47:31 81° E 05:52:46 10° S
Cosmos 1743 Rocket 3.5 05:44:18 10° S 05:48:41 85° W 05:53:06 10° N
CZ-2C R/B 3.9 05:44:34 10° SW 05:48:42 22° W 05:52:48 10° NW
FAST Rocket 3.8 05:48:24 10° SSW 05:50:59 68° W 05:53:55 10° N
Cosmos 1943 Rocket 3.8 05:48:15 11° WNW 05:51:09 15° NW 05:54:17 10° N
AQUARIUS 4.3 05:46:57 10° NNE 05:51:28 81° ESE 05:55:58 10° S
Cosmos 2227 Rocket 4.2 05:47:38 10° N 05:52:00 22° NE 05:56:19 10° E
PSLV R/B 4.2 05:52:23 10° SSE 05:56:24 70° ENE 06:00:30 10° N
PSLV R/B 4.2 05:52:43 10° NNE 05:56:38 69° E 06:00:37 10° S
Cosmos 1777 Rocket 4.0 05:51:26 10° SSW 05:56:39 75° WNW 06:01:54 10° NNE
Cosmos 1515 Rocket 4.1 05:53:58 10° NNW 05:58:00 37° W 06:01:59 10° SSW
SL-8 R/B 3.9 05:54:27 10° WNW 05:59:12 65° SSW 06:03:55 10° SE
CORIOLIS 4.3 05:55:20 10° NNE 06:00:50 88° ESE 06:06:17 10° SSW
Cosmos 1602 3.8 05:57:21 10° S 06:01:08 83° E 06:04:58 10° N
Meteor 1-27 Rocket 3.9 05:55:39 10° NNW 06:01:09 55° W 06:06:43 10° S
NOAA 6 4.0 05:57:47 10° NNE 06:02:56 79° WNW 06:08:01 10° SSW
COSMOS 2487 2.7 06:02:00 10° NNW 06:05:22 68° ENE 06:08:41 10° SSE
Cosmos 773 Rocket 4.4 06:00:46 10° NNW 06:05:45 46° WSW 06:10:40 10° S
SJ 16-02 1.4 06:01:53 10° SSW 06:06:12 61° WNW 06:10:33 10° NNE
CENTAUR R/B 4.0 06:04:19 10° WNW 06:09:21 22° NNW 06:15:04 10° NNE
